Date String (YYYY-MM-DD hh:mm:ss) UTC,Instrument flags,Ambient pressure (hPa),Sample flow (lpm),Bypass flow (lpm),Sample temperature (°C),Ambient temperature (°C),ASC tube jacket temperature (°C),LED temperature (°C),Box temperature (°C),Sample RH (%),Span deviation,Mass concentration (μg/m³),Mass concentration (μg/m³),Mass concentration (μg/m³)
DateTimeUTC,F1_M11,P_M11,Q1_M11,Q2_M11,T1_M11,T2_M11,T3_M11,T4_M11,T5_M11,U1_M11,ZSPAN_M11,X0_M11,X2_M11,X1_M11
2022-05-27 18:00:00,,0823.7,5.00,0.00,29.1,28.2,00.0,37.9,31.1,17.5,0000.0,0008.92,0003.34,0002.37
2022-05-27 18:01:00,,0823.6,5.00,0.00,29.1,27.7,00.0,37.8,31.0,19.1,0000.0,0008.78,0003.36,0002.40
2022-05-27 18:02:00,,0823.6,5.01,0.00,29.1,27.0,00.0,37.8,30.8,19.2,0000.0,0008.90,0003.35,0002.41
2022-05-27 18:03:00,,0823.5,5.00,0.00,29.0,27.0,00.0,37.8,30.8,18.9,0000.0,0009.83,0003.43,0002.41
2022-05-27 18:04:00,,0823.4,4.99,0.00,29.0,27.0,00.0,37.8,30.8,18.1,0000.0,0010.99,0003.50,0002.42
2022-05-27 18:05:00,,0823.4,4.99,0.00,29.0,27.2,00.0,37.8,30.8,18.8,0000.0,0011.16,0003.51,0002.42
2022-05-27 18:06:00,,0823.4,5.01,0.00,29.0,27.4,00.0,37.8,30.9,16.3,0000.0,0011.24,0003.54,0002.42
2022-05-27 18:07:00,,0823.4,5.01,0.00,29.0,27.6,00.0,37.8,30.9,17.7,0000.0,0012.04,0003.57,0002.43
2022-05-27 18:08:00,,0823.4,5.00,0.00,29.0,27.7,00.0,37.8,31.0,16.7,0000.0,0012.37,0003.58,0002.44
2022-05-27 18:09:00,,0823.4,4.99,0.00,29.1,27.9,00.0,37.8,31.0,15.2,0000.0,0012.65,0003.60,0002.43
2022-05-27 18:10:00,,0823.4,5.00,0.00,29.1,28.1,00.0,37.9,31.1,15.4,0000.0,0012.62,0003.60,0002.42
2022-05-27 18:11:00,,0823.4,5.00,0.00,29.1,28.2,00.0,37.9,31.1,15.1,0000.0,0011.43,0003.53,0002.40
2022-05-27 18:12:00,,0823.3,5.00,0.00,29.1,27.8,00.0,37.8,31.1,14.7,0000.0,0011.28,0003.51,0002.37
2022-05-27 18:13:00,,0823.3,4.98,0.00,29.1,27.1,00.0,37.8,30.8,15.6,0000.0,0011.52,0003.48,0002.34
2022-05-27 18:14:00,,0823.3,5.00,0.00,29.0,26.9,00.0,37.8,30.8,15.4,0000.0,0011.25,0003.39,0002.31
2022-05-27 18:15:00,,0823.4,5.00,0.00,29.0,27.0,00.0,37.8,30.8,14.7,0000.0,0010.67,0003.31,0002.29
2022-05-27 18:16:00,,0823.3,5.00,0.00,29.0,27.2,00.0,37.8,30.8,12.4,0000.0,0010.66,0003.27,0002.27
2022-05-27 18:17:00,,0823.2,5.01,0.00,29.0,27.4,00.0,37.8,30.8,12.2,0000.0,0010.34,0003.24,0002.26
2022-05-27 18:18:00,,0823.2,4.99,0.00,29.0,27.6,00.0,37.8,30.9,11.7,0000.0,0009.61,0003.19,0002.23
2022-05-27 18:19:00,,0823.2,4.99,0.00,29.0,27.7,00.0,37.8,31.0,11.7,0000.0,0009.07,0003.13,0002.20
2022-05-27 18:20:00,,0823.2,5.01,0.00,29.1,27.9,00.0,37.8,31.0,10.6,0000.0,0008.81,0003.06,0002.19
2022-05-27 18:21:00,,0823.2,5.00,0.00,29.1,28.1,00.0,37.9,31.1,10.4,0000.0,0009.40,0003.06,0002.19
2022-05-27 18:22:00,,0823.1,4.99,0.00,29.1,28.1,00.0,37.9,31.1,11.0,0000.0,0009.38,0003.13,0002.18
2022-05-27 18:23:00,,0823.1,5.00,0.00,29.1,27.5,00.0,37.8,30.9,11.9,0000.0,0009.40,0003.12,0002.16
2022-05-27 18:24:00,,0823.0,5.01,0.00,29.0,26.9,00.0,37.8,30.8,11.3,0000.0,0009.21,0003.12,0002.15
2022-05-27 18:25:00,,0823.0,5.00,0.00,29.0,26.9,00.0,37.8,30.8,10.7,0000.0,0008.64,0003.14,0002.14
2022-05-27 18:26:00,,0823.0,5.00,0.00,29.0,27.1,00.0,37.8,30.8,11.4,0000.0,0007.99,0003.15,0002.13
2022-05-27 18:27:00,,0822.9,5.00,0.00,29.0,27.2,00.0,37.8,30.8,11.0,0000.0,0008.40,0003.13,0002.11
2022-05-27 18:28:00,,0823.0,4.99,0.00,29.0,27.4,00.0,37.8,30.9,12.2,0000.0,0008.71,0003.06,0002.09
2022-05-27 18:29:00,,0823.0,4.99,0.00,29.0,27.6,00.0,37.8,30.9,10.6,0000.0,0008.71,0003.12,0002.08
2022-05-27 18:30:00,,0822.9,5.00,0.00,29.0,27.8,00.0,37.8,31.0,10.4,0000.0,0009.44,0003.14,0002.09
2022-05-27 18:31:00,,0822.9,5.00,0.00,29.1,28.0,00.0,37.8,31.0,11.8,0000.0,0009.81,0003.16,0002.09
2022-05-27 18:32:00,,0822.8,5.01,0.00,29.1,28.1,00.0,37.9,31.1,12.0,0000.0,0009.28,0003.14,0002.09
2022-05-27 18:33:00,,0822.8,5.00,0.00,29.2,28.2,00.0,37.9,31.1,12.8,0000.0,0009.23,0003.11,0002.09
2022-05-27 18:34:00,,0822.7,5.01,0.00,29.2,27.8,00.0,37.8,31.0,12.1,0000.0,0009.03,0003.11,0002.10
2022-05-27 18:35:00,,0822.7,4.99,0.00,29.1,27.1,00.0,37.8,30.8,11.5,0000.0,0009.23,0003.09,0002.12
2022-05-27 18:36:00,,0822.7,5.01,0.00,29.0,27.0,00.0,37.8,30.8,11.5,0000.0,0009.45,0003.02,0002.12
2022-05-27 18:37:00,,0822.7,5.00,0.00,29.0,27.1,00.0,37.8,30.8,11.7,0000.0,0009.40,0003.02,0002.15
2022-05-27 18:38:00,,0822.7,5.01,0.00,29.0,27.2,00.0,37.8,30.8,12.2,0000.0,0008.53,0003.05,0002.18
2022-05-27 18:39:00,,0822.7,5.00,0.00,29.0,27.4,00.0,37.8,30.9,10.8,0000.0,0008.06,0003.08,0002.21
2022-05-27 18:40:00,,0822.6,5.00,0.00,29.0,27.6,00.0,37.8,30.9,11.2,0000.0,0008.05,0003.07,0002.23
2022-05-27 18:41:00,,0822.7,4.99,0.00,29.1,27.8,00.0,37.8,31.0,11.9,0000.0,0007.64,0003.10,0002.26
2022-05-27 18:42:00,,0822.6,4.99,0.00,29.1,28.0,00.0,37.9,31.1,11.4,0000.0,0007.52,0003.14,0002.30
2022-05-27 18:43:00,,0822.7,5.00,0.00,29.1,28.1,00.0,37.9,31.1,12.5,0000.0,0007.43,0003.15,0002.32
2022-05-27 18:44:00,,0822.6,5.00,0.00,29.1,27.8,00.0,37.8,31.0,14.1,0000.0,0007.41,0003.16,0002.35
2022-05-27 18:45:00,,0822.5,4.99,0.00,29.1,27.1,00.0,37.8,30.8,14.2,0000.0,0007.73,0003.16,0002.35
2022-05-27 18:46:00,,0822.5,5.00,0.00,29.0,26.9,00.0,37.8,30.8,14.7,0000.0,0007.74,0003.18,0002.36
2022-05-27 18:47:00,,0822.5,5.01,0.00,29.0,27.0,00.0,37.8,30.8,14.4,0000.0,0008.27,0003.25,0002.38
2022-05-27 18:48:00,,0822.5,4.99,0.00,29.0,27.2,00.0,37.8,30.8,15.7,0000.0,0008.28,0003.28,0002.38
2022-05-27 18:49:00,,0822.6,5.00,0.00,29.0,27.4,00.0,37.8,30.8,13.7,0000.0,0008.45,0003.29,0002.39
2022-05-27 18:50:00,,0822.5,4.99,0.00,29.0,27.6,00.0,37.8,30.9,12.7,0000.0,0008.55,0003.30,0002.40
2022-05-27 18:51:00,,0822.5,5.00,0.00,29.0,27.8,00.0,37.8,31.0,13.8,0000.0,0008.56,0003.31,0002.42
2022-05-27 18:52:00,,0822.6,5.00,0.00,29.1,27.9,00.0,37.8,31.0,14.1,0000.0,0008.22,0003.33,0002.43
2022-05-27 18:53:00,,0822.5,4.99,0.00,29.1,28.1,00.0,37.9,31.1,12.9,0000.0,0008.33,0003.36,0002.43
2022-05-27 18:54:00,,0822.5,4.99,0.00,29.1,27.8,00.0,37.8,31.0,13.7,0000.0,0008.48,0003.35,0002.42
2022-05-27 18:55:00,,0822.5,5.01,0.00,29.0,26.9,00.0,37.8,30.7,14.0,0000.0,0008.45,0003.33,0002.42
2022-05-27 18:56:00,,0822.4,5.00,0.00,29.0,26.7,00.0,37.7,30.7,12.4,0000.0,0008.17,0003.37,0002.43
2022-05-27 18:57:00,,0822.5,5.01,0.00,28.9,26.8,00.0,37.7,30.7,14.0,0000.0,0008.14,0003.36,0002.42
2022-05-27 18:58:00,,0822.5,5.00,0.00,28.9,27.0,00.0,37.7,30.7,14.1,0000.0,0007.32,0003.33,0002.41
2022-05-27 18:59:00,,0822.5,5.01,0.00,28.9,27.2,00.0,37.7,30.8,14.8,0000.0,0007.21,0003.32,0002.41
